Time,TemperatureF,DewpointF,PressureIn,WindDirection,WindDirectionDegrees,WindSpeedMPH,WindSpeedGustMPH,Humidity,HourlyPrecipIn,Conditions,Clouds,dailyrainin,SolarRadiationWatts/m^2,SoftwareType,DateUTC
2013-07-24 00:43:00,72.0,46.0,-100.00,SSW,210,9.0,20.0,39,-99.99,,,0.00,1.000000,,2013-07-24 06:43:00,
2013-07-24 00:53:00,72.0,46.0,-100.00,SSW,210,9.0,20.0,39,-99.99,,,0.00,1.000000,,2013-07-24 06:53:00,
2013-07-24 01:02:00,72.0,46.0,-100.00,SSW,210,9.0,20.0,39,-99.99,,,0.00,1.000000,,2013-07-24 07:02:00,
2013-07-24 01:12:00,72.0,46.0,-100.00,SSW,210,9.0,20.0,39,-99.99,,,0.00,1.000000,,2013-07-24 07:12:00,
2013-07-24 01:43:00,69.0,47.0,-100.00,West,279,3.0,13.0,46,0.00,,,0.00,1.000000,,2013-07-24 07:43:00,
2013-07-24 01:53:00,69.0,47.0,-100.00,West,279,3.0,13.0,46,0.00,,,0.00,1.000000,,2013-07-24 07:53:00,
2013-07-24 02:02:00,69.0,47.0,-100.00,West,279,3.0,13.0,46,0.00,,,0.00,1.000000,,2013-07-24 08:02:00,
2013-07-24 02:12:00,69.0,47.0,-100.00,West,279,3.0,13.0,46,0.00,,,0.00,1.000000,,2013-07-24 08:12:00,
2013-07-24 02:43:00,68.0,48.0,-100.00,NE,54,0.0,6.0,49,0.00,,,0.00,1.000000,,2013-07-24 08:43:00,
2013-07-24 02:52:00,68.0,48.0,-100.00,NE,54,0.0,6.0,49,0.00,,,0.00,1.000000,,2013-07-24 08:52:00,
2013-07-24 03:02:00,68.0,48.0,-100.00,NE,54,0.0,6.0,49,0.00,,,0.00,1.000000,,2013-07-24 09:02:00,
2013-07-24 03:12:00,68.0,48.0,-100.00,NE,54,0.0,6.0,49,0.00,,,0.00,1.000000,,2013-07-24 09:12:00,
2013-07-24 03:43:00,68.0,48.0,-100.00,West,267,1.0,5.0,48,0.00,,,0.00,1.000000,,2013-07-24 09:43:00,
2013-07-24 03:53:00,68.0,48.0,-100.00,West,267,1.0,5.0,48,0.00,,,0.00,1.000000,,2013-07-24 09:53:00,
2013-07-24 04:02:00,68.0,48.0,-100.00,West,267,1.0,5.0,48,0.00,,,0.00,1.000000,,2013-07-24 10:02:00,
2013-07-24 04:12:00,68.0,48.0,-100.00,West,267,1.0,5.0,48,0.00,,,0.00,1.000000,,2013-07-24 10:12:00,
2013-07-24 04:43:00,68.0,45.0,-100.00,NNE,18,7.0,8.0,43,0.00,,,0.00,1.000000,,2013-07-24 10:43:00,
2013-07-24 04:53:00,68.0,45.0,-100.00,NNE,18,7.0,8.0,43,0.00,,,0.00,1.000000,,2013-07-24 10:53:00,
2013-07-24 05:02:00,68.0,45.0,-100.00,NNE,18,7.0,8.0,43,0.00,,,0.00,1.000000,,2013-07-24 11:02:00,
2013-07-24 05:12:00,68.0,45.0,-100.00,NNE,18,7.0,8.0,43,0.00,,,0.00,1.000000,,2013-07-24 11:12:00,
2013-07-24 05:44:00,67.0,46.0,-100.00,NNE,32,4.0,8.0,46,0.00,,,0.00,1.000000,,2013-07-24 11:44:00,
2013-07-24 05:52:00,67.0,46.0,-100.00,NNE,32,4.0,8.0,46,0.00,,,0.00,1.000000,,2013-07-24 11:52:00,
2013-07-24 06:02:00,67.0,46.0,-100.00,NNE,32,4.0,8.0,46,0.00,,,0.00,1.000000,,2013-07-24 12:02:00,
2013-07-24 06:12:00,67.0,46.0,-100.00,NNE,32,4.0,8.0,46,0.00,,,0.00,1.000000,,2013-07-24 12:12:00,
2013-07-24 06:42:00,66.0,46.0,-100.00,North,358,2.0,7.0,49,0.00,,,0.00,1.000000,,2013-07-24 12:42:00,
2013-07-24 06:52:00,66.0,46.0,-100.00,North,358,2.0,7.0,49,0.00,,,0.00,1.000000,,2013-07-24 12:52:00,
2013-07-24 07:02:00,66.0,46.0,-100.00,North,358,2.0,7.0,49,0.00,,,0.00,1.000000,,2013-07-24 13:02:00,
2013-07-24 07:12:00,66.0,46.0,-100.00,North,358,2.0,7.0,49,0.00,,,0.00,1.000000,,2013-07-24 13:12:00,
2013-07-24 07:43:00,69.0,46.0,-100.00,East,82,7.0,9.0,44,0.00,,,-99.99,21.000000,,2013-07-24 13:43:00,
2013-07-24 07:53:00,69.0,46.0,-100.00,East,82,7.0,9.0,44,0.00,,,-99.99,21.000000,,2013-07-24 13:53:00,
2013-07-24 08:02:00,69.0,46.0,-100.00,East,82,7.0,9.0,44,0.00,,,-99.99,21.000000,,2013-07-24 14:02:00,
2013-07-24 08:12:00,69.0,46.0,-100.00,East,82,7.0,9.0,44,0.00,,,-99.99,21.000000,,2013-07-24 14:12:00,
2013-07-24 08:43:00,72.0,46.0,-100.00,ENE,74,9.0,12.0,40,0.00,,,0.00,136.000000,,2013-07-24 14:43:00,
2013-07-24 08:55:00,72.0,46.0,-100.00,ENE,74,9.0,12.0,40,0.00,,,0.00,136.000000,,2013-07-24 14:55:00,
2013-07-24 09:02:00,72.0,46.0,-100.00,ENE,74,9.0,12.0,40,0.00,,,0.00,136.000000,,2013-07-24 15:02:00,
2013-07-24 09:12:00,72.0,46.0,-100.00,ENE,74,9.0,12.0,40,0.00,,,0.00,136.000000,,2013-07-24 15:12:00,
2013-07-24 10:02:00,80.0,45.0,-100.00,East,86,8.0,15.0,29,0.00,,,0.00,483.000000,,2013-07-24 16:02:00,
2013-07-24 10:53:00,84.0,42.0,-100.00,WSW,240,3.0,15.0,23,0.00,,,0.00,648.000000,,2013-07-24 16:53:00,
2013-07-24 11:02:00,84.0,42.0,-100.00,WSW,240,3.0,15.0,23,0.00,,,0.00,648.000000,,2013-07-24 17:02:00,
2013-07-24 11:12:00,84.0,42.0,-100.00,WSW,240,3.0,15.0,23,0.00,,,0.00,648.000000,,2013-07-24 17:12:00,
2013-07-24 11:43:00,85.0,43.0,-100.00,SSE,164,6.0,15.0,23,0.00,,,0.00,732.000000,,2013-07-24 17:43:00,
2013-07-24 11:53:00,85.0,43.0,-100.00,SSE,164,6.0,15.0,23,0.00,,,0.00,732.000000,,2013-07-24 17:53:00,
2013-07-24 12:02:00,85.0,43.0,-100.00,SSE,164,6.0,15.0,23,0.00,,,0.00,732.000000,,2013-07-24 18:02:00,
2013-07-24 12:12:00,85.0,43.0,-100.00,SSE,164,6.0,15.0,23,0.00,,,0.00,732.000000,,2013-07-24 18:12:00,
2013-07-24 13:43:00,90.0,34.0,-100.00,SSE,151,9.0,37.0,14,0.00,,,0.00,1146.000000,,2013-07-24 19:43:00,
2013-07-24 13:53:00,90.0,34.0,-100.00,SSE,151,9.0,37.0,14,0.00,,,0.00,1146.000000,,2013-07-24 19:53:00,
2013-07-24 14:02:00,90.0,34.0,-100.00,SSE,151,9.0,37.0,14,0.00,,,0.00,1146.000000,,2013-07-24 20:02:00,
2013-07-24 14:13:00,90.0,34.0,-100.00,SSE,151,9.0,37.0,14,0.00,,,0.00,1146.000000,,2013-07-24 20:13:00,
2013-07-24 14:43:00,90.0,36.0,-100.00,SE,133,14.0,27.0,15,0.00,,,0.00,1215.000000,,2013-07-24 20:43:00,
2013-07-24 14:53:00,90.0,36.0,-100.00,SE,133,14.0,27.0,15,0.00,,,0.00,1215.000000,,2013-07-24 20:53:00,
2013-07-24 15:02:00,90.0,36.0,-100.00,SE,133,14.0,27.0,15,0.00,,,0.00,1215.000000,,2013-07-24 21:02:00,
2013-07-24 15:12:00,90.0,36.0,-100.00,SE,133,14.0,27.0,15,0.00,,,0.00,1215.000000,,2013-07-24 21:12:00,
2013-07-24 15:44:00,89.0,41.0,-100.00,SSE,159,13.0,24.0,19,0.00,,,0.00,962.000000,,2013-07-24 21:44:00,
2013-07-24 15:53:00,89.0,41.0,-100.00,SSE,159,13.0,24.0,19,0.00,,,0.00,962.000000,,2013-07-24 21:53:00,
2013-07-24 16:02:00,89.0,41.0,-100.00,SSE,159,13.0,24.0,19,0.00,,,0.00,962.000000,,2013-07-24 22:02:00,
2013-07-24 16:12:00,89.0,41.0,-100.00,SSE,159,13.0,24.0,19,0.00,,,0.00,962.000000,,2013-07-24 22:12:00,
2013-07-24 16:43:00,90.0,39.0,-100.00,SSE,159,11.0,24.0,17,0.00,,,0.00,1036.000000,,2013-07-24 22:43:00,
2013-07-24 16:53:00,90.0,39.0,-100.00,SSE,159,11.0,24.0,17,0.00,,,0.00,1036.000000,,2013-07-24 22:53:00,
2013-07-24 17:02:00,90.0,39.0,-100.00,SSE,159,11.0,24.0,17,0.00,,,0.00,1036.000000,,2013-07-24 23:02:00,
2013-07-24 17:12:00,90.0,39.0,-100.00,SSE,159,11.0,24.0,17,0.00,,,0.00,1036.000000,,2013-07-24 23:12:00,
2013-07-24 17:43:00,89.0,40.0,-100.00,SSW,193,12.0,27.0,18,0.00,,,0.00,708.000000,,2013-07-24 23:43:00,
2013-07-24 17:52:00,89.0,40.0,-100.00,SSW,193,12.0,27.0,18,0.00,,,0.00,708.000000,,2013-07-24 23:52:00,
2013-07-24 18:02:00,89.0,40.0,-100.00,SSW,193,12.0,27.0,18,0.00,,,0.00,708.000000,,2013-07-25 00:02:00,
2013-07-24 18:12:00,89.0,40.0,-100.00,SSW,193,12.0,27.0,18,0.00,,,0.00,708.000000,,2013-07-25 00:12:00,
2013-07-24 18:43:00,78.0,51.0,-100.00,SE,139,27.0,41.0,39,-99.99,,,0.00,560.000000,,2013-07-25 00:43:00,
2013-07-24 18:53:00,78.0,51.0,-100.00,SE,139,27.0,41.0,39,-99.99,,,0.00,560.000000,,2013-07-25 00:53:00,
2013-07-24 19:02:00,78.0,51.0,-100.00,SE,139,27.0,41.0,39,-99.99,,,0.00,560.000000,,2013-07-25 01:02:00,
2013-07-24 19:12:00,78.0,51.0,-100.00,SE,139,27.0,41.0,39,-99.99,,,0.00,560.000000,,2013-07-25 01:12:00,
2013-07-24 19:43:00,73.0,49.0,-100.00,SE,129,27.0,42.0,43,0.00,,,0.00,358.000000,,2013-07-25 01:43:00,
2013-07-24 19:53:00,73.0,49.0,-100.00,SE,129,27.0,42.0,43,0.00,,,0.00,358.000000,,2013-07-25 01:53:00,
2013-07-24 20:02:00,73.0,49.0,-100.00,SE,129,27.0,42.0,43,0.00,,,0.00,358.000000,,2013-07-25 02:02:00,
2013-07-24 20:12:00,73.0,49.0,-100.00,SE,129,27.0,42.0,43,0.00,,,0.00,358.000000,,2013-07-25 02:12:00,
2013-07-24 20:15:00,70.0,47.0,-100.00,ESE,111,24.0,36.0,44,-99.99,,,0.00,100.000000,,2013-07-25 02:15:00,
2013-07-24 20:43:00,70.0,47.0,-100.00,ESE,111,24.0,36.0,44,-99.99,,,0.00,100.000000,,2013-07-25 02:43:00,
2013-07-24 20:53:00,70.0,47.0,-100.00,ESE,111,24.0,36.0,44,-99.99,,,0.00,100.000000,,2013-07-25 02:53:00,
2013-07-24 21:02:00,70.0,47.0,-100.00,ESE,111,24.0,36.0,44,-99.99,,,0.00,100.000000,,2013-07-25 03:02:00,
2013-07-24 21:45:00,69.0,44.0,-100.00,ESE,121,17.0,30.0,40,-99.99,,,0.00,2.000000,,2013-07-25 03:45:00,
2013-07-24 21:52:00,69.0,44.0,-100.00,ESE,121,17.0,30.0,40,-99.99,,,0.00,2.000000,,2013-07-25 03:52:00,
2013-07-24 22:02:00,69.0,44.0,-100.00,ESE,121,17.0,30.0,40,-99.99,,,0.00,2.000000,,2013-07-25 04:02:00,
2013-07-24 22:12:00,69.0,44.0,-100.00,ESE,121,17.0,30.0,40,-99.99,,,0.00,2.000000,,2013-07-25 04:12:00,
2013-07-24 22:43:00,66.0,51.0,-100.00,SE,126,15.0,25.0,59,0.00,,,0.00,1.000000,,2013-07-25 04:43:00,
2013-07-24 22:53:00,66.0,51.0,-100.00,SE,126,15.0,25.0,59,0.00,,,0.00,1.000000,,2013-07-25 04:53:00,
2013-07-24 23:02:00,66.0,51.0,-100.00,SE,126,15.0,25.0,59,0.00,,,0.00,1.000000,,2013-07-25 05:02:00,
2013-07-24 23:12:00,66.0,51.0,-100.00,SE,126,15.0,25.0,59,0.00,,,0.00,1.000000,,2013-07-25 05:12:00,
2013-07-24 23:43:00,65.0,51.0,-100.00,ESE,111,10.0,21.0,61,0.00,,,0.00,1.000000,,2013-07-25 05:43:00,
2013-07-24 23:52:00,65.0,51.0,-100.00,ESE,111,10.0,21.0,61,0.00,,,0.00,1.000000,,2013-07-25 05:52:00,